Location: Achttienhoven
(52.1468°N, 4.8580°E)
Time: 20:10:07
(UTC+00:00)

Daily predictions for brighter satellites

Satellite Brightness Start Highest point End
(mag) Time Altitude Azimuth Time Altitude Azimuth Time Altitude Azimuth
Cosmos 2227 Rocket 3.8 16:43:07 10° SE 16:46:17 15° E 16:49:26 10° ENE
Starlink T 3.5 16:43:57 10° SW 16:46:52 45° SSE 16:49:48 10° E
Starlink N 3.5 16:45:24 10° SW 16:48:20 46° SSE 16:51:16 10° E
NOSS 2-1 (C) 4.3 16:44:23 10° NW 16:49:05 56° NE 16:55:34 10° ESE
Starlink Q 3.4 16:47:08 10° SW 16:50:04 47° SSE 16:53:01 10° E
COSMOS 2428 3.1 16:44:45 10° NW 16:50:29 72° WSW 16:56:11 10° SSE
Starlink P 3.4 16:48:40 10° SW 16:51:38 48° SSE 16:54:34 10° E
NOSS 2-1 (D) 4.3 16:48:11 10° NW 16:52:56 58° NE 16:59:30 10° ESE
Starlink U 3.4 16:50:13 10° SW 16:53:09 49° SSE 16:56:08 10° E
Meteor 2-1 Rocket 4.4 16:48:38 10° N 16:53:58 48° ENE 16:59:17 10° SE
Cosmos 1892 Rocket 4.0 16:49:33 10° SSW 16:54:01 70° WNW 16:58:29 10° N
PSLV R/B 4.0 16:50:07 10° NNE 16:54:09 56° ESE 16:58:09 10° S
Starlink B 3.3 16:51:47 10° SW 16:54:44 50° SSE 16:57:42 10° E
Cosmos 2298 Rocket 4.1 16:50:17 10° SSW 16:55:34 76° ESE 17:00:55 10° NNE
Starlink AR 2.9 16:53:11 10° SW 16:55:42 49° SSE 16:58:10 10° E
Cosmos 1812 Rocket 3.7 16:53:41 10° N 16:58:05 54° ENE 17:02:28 10° SSE
Meteor 2-10 Rocket 4.4 16:54:49 10° N 16:59:25 28° ENE 17:03:52 10° ESE
Cosmos 1939 Rocket 4.2 16:58:08 10° ESE 17:00:52 18° ENE 17:03:36 10° NNE
Starlink D 3.2 16:59:58 10° WSW 17:02:58 56° SSE 17:05:42 12° E
Starlink S 3.1 17:01:19 10° WSW 17:04:19 57° SSE 17:06:58 13° E
Helios 1A Rocket 4.5 17:01:18 10° S 17:05:06 40° W 17:08:58 10° NNW
Cosmos-2242 3.8 17:01:36 10° N 17:05:24 28° ENE 17:09:09 10° SE
COBE Rocket 4.2 17:00:18 10° NNE 17:05:28 82° WNW 17:10:39 10° SSW
Starlink C 3.1 17:03:12 10° WSW 17:06:12 58° SSE 17:08:50 13° E
Starlink E 3.1 17:04:50 10° WSW 17:07:53 60° SSE 17:10:26 14° E
Starlink J 3.1 17:06:29 10° WSW 17:09:31 61° SSE 17:12:02 14° E
USA 234 4.2 17:03:33 10° SE 17:09:54 52° SW 17:16:16 10° WNW
YAOGAN 1 3.3 17:07:00 10° SE 17:10:48 30° ENE 17:14:36 10° N
Starlink V 3.0 17:08:08 10° WSW 17:11:10 62° SSE 17:13:36 15° E
Cosmos 2184 Rocket 4.0 17:05:52 10° S 17:12:03 89° E 17:18:16 10° N
Starlink H 3.0 17:09:47 10° WSW 17:12:50 63° SSE 17:15:13 15° E
H-2A R/B 3.7 17:12:07 12° ENE 17:13:18 13° NE 17:15:32 10° NNE
Cosmos 2251 Rocket 4.3 17:09:14 10° NNW 17:13:53 30° NE 17:18:32 10° ESE
Starlink F 3.0 17:11:27 10° WSW 17:14:30 65° SSE 17:16:50 16° E
Starlink G 3.0 17:13:07 10° WSW 17:16:11 66° SSE 17:18:26 17° E
Starlink L 3.0 17:14:47 10° WSW 17:17:51 67° SSE 17:20:03 17° E
Starlink A 2.9 17:16:27 10° WSW 17:19:31 68° SSE 17:21:40 18° E
Cosmos 2154 Rocket 4.0 17:14:15 10° S 17:20:28 70° E 17:26:41 10° NNE
CSL-04 Debris 4.5 17:16:04 10° SE 17:21:06 43° ENE 17:26:12 10° N
Starlink R 2.9 17:18:08 10° WSW 17:21:13 70° SSE 17:23:18 19° E
Cosmos 1242 Rocket 2.5 17:17:59 10° SSW 17:21:30 87° WNW 17:25:07 10° NNE
Cosmos 1674 4.3 17:19:07 10° SW 17:22:33 35° WNW 17:26:00 10° N
ATLAS CENTAUR R/B 2.3 17:19:00 10° NNW 17:22:44 29° NNE 17:25:05 17° E
Starlink K 2.9 17:19:47 10° WSW 17:22:52 71° SSE 17:24:53 19° E
Starlink M 2.9 17:21:25 10° WSW 17:24:30 72° SSE 17:26:28 20° E
USA 32 4.3 17:20:23 10° SSE 17:25:21 46° E 17:30:20 10° NNE
Cosmos 2082 Rocket 4.4 17:24:17 10° NW 17:27:05 14° NNW 17:29:53 10° NNE
ISS -1.3 17:26:36 10° SSE 17:27:23 11° SE 17:28:11 10° ESE
Cosmos 2150 Rocket 4.3 17:22:56 10° SW 17:28:04 69° WNW 17:33:14 10° NNE
Cosmos 1602 Rocket 3.5 17:24:01 10° S 17:28:24 79° E 17:32:46 10° NNE
CZ-4 R/B 1.5 17:28:01 10° SSE 17:31:59 55° ENE 17:36:04 10° N
SMAP 4.3 17:28:10 10° S 17:32:39 46° W 17:37:08 10° NNW
Cosmos 1300 3.6 17:29:07 10° NNW 17:32:52 52° W 17:36:34 10° S
Cosmos 2237 Rocket 2.3 17:27:49 10° NNW 17:33:28 80° WSW 17:39:06 10° SSE
Cosmos 1610 Rocket 4.5 17:27:38 10° S 17:33:46 89° E 17:40:00 10° N
ATLAS CENTAUR R/B 3.9 17:29:08 10° WSW 17:34:51 84° NNW 17:48:22 16° ENE
COSMO-SKYMED 1 2.8 17:32:42 10° NNE 17:36:56 47° E 17:41:08 10° S
Cosmos 1295 Rocket 4.5 17:30:42 10° S 17:37:00 71° E 17:43:18 10° NNE
YAOGAN 6 2.6 17:34:18 10° SSE 17:37:59 85° W 17:41:40 10° NNW
Cosmos 1125 Rocket 3.5 17:33:05 10° SSW 17:38:17 88° ESE 17:43:33 10° NNE
Cosmos 2333 Rocket 4.3 17:33:52 10° NW 17:38:50 31° WSW 17:43:45 10° SSW
NOSS 2-1 (E) 4.3 17:34:34 10° NW 17:39:42 90° SSE 17:46:53 10° SE
CZ-2D R/B 3.7 17:36:50 10° SE 17:40:24 38° ENE 17:44:01 10° N
Cosmos 1953 Rocket 4.3 17:36:50 10° SSE 17:40:49 32° E 17:44:25 12° NNE
Cosmos 1626 2.6 17:37:31 10° SSW 17:41:12 63° WNW 17:44:54 10° N
ADEOS Rocket 4.1 17:37:34 10° NE 17:43:02 27° E 17:48:55 10° SSE
Cosmos 1758 Rocket 3.6 17:41:24 10° S 17:45:36 55° E 17:49:51 10° NNE
Cosmos 2366 rocket 4.4 17:40:25 10° SSE 17:46:08 40° E 17:51:55 10° NNE
CZ-4 R/B 4.3 17:42:21 10° SSE 17:46:29 84° ENE 17:50:38 10° NNW
CSL-04 Rocket 3.7 17:41:28 10° SSE 17:46:55 64° ENE 17:52:25 10° N
Cosmos 1455 2.3 17:44:11 10° N 17:47:58 51° ENE 17:51:40 10° SSE
Envisat 3.7 17:42:59 10° S 17:47:59 57° W 17:53:01 10° NNW
Cosmos 1356 Rocket 4.1 17:45:14 10° N 17:48:46 29° ENE 17:49:34 27° E
ATLAS 5 CENTAUR R/B 2.9 17:46:09 10° W 17:50:18 35° NNW 17:53:53 16° NE
Cosmos 1626 Rocket 4.3 17:46:09 10° SSW 17:50:23 52° WNW 17:54:38 10° N
Cosmos 962 Rocket 4.4 17:46:35 10° S 17:52:40 76° E 17:58:52 10° NNE
ERBS 3.0 17:51:58 10° SSW 17:55:03 36° SE 17:55:37 33° ESE
SL-16 R/B 2.1 17:50:06 10° NNW 17:55:48 67° NE 18:01:26 10° SE
Starlink AS 2.6 17:54:23 10° W 17:57:18 85° NNW 17:57:52 55° ENE
Starlink BA 2.6 17:54:37 10° W 17:57:33 85° N 17:58:06 55° ENE
Starlink AU 2.6 17:54:51 10° W 17:57:47 85° NNW 17:58:19 56° ENE
Starlink AQ 2.6 17:55:02 10° W 17:58:00 85° N 17:58:33 55° ENE
Starlink AT 2.6 17:55:05 10° W 17:58:01 85° N 17:58:33 56° ENE
Starlink BB 2.6 17:55:17 10° W 17:58:14 84° N 17:58:45 56° ENE
CZ-4C R/B 4.3 17:51:40 10° NW 17:58:18 41° WSW 18:05:45 10° S
Starlink BC 2.6 17:55:31 10° W 17:58:28 84° N 17:58:58 57° ENE
Starlink BK 2.6 17:55:44 10° W 17:58:40 84° NNW 17:59:11 57° ENE
Starlink AY 2.6 17:55:58 10° W 17:58:55 84° N 17:59:24 58° ENE
Starlink AW 2.6 17:56:12 10° W 17:59:09 84° N 17:59:37 58° ENE
Okean-O 3.7 17:54:58 10° S 17:59:15 47° W 18:03:34 10° NNW
Starlink BJ 2.6 17:56:25 10° W 17:59:22 84° N 17:59:50 59° ENE
Starlink AV 2.6 17:56:39 10° W 17:59:34 84° NNW 18:00:03 59° ENE
Starlink BD 2.6 17:56:53 10° W 17:59:49 84° N 18:00:16 59° ENE
Starlink BE 2.6 17:57:06 10° W 18:00:03 84° N 18:00:32 59° ENE
Starlink BM 2.6 17:57:20 10° W 18:00:16 83° NNW 18:00:43 60° ENE
Starlink AX 2.6 17:57:33 10° W 18:00:30 83° N 18:00:56 61° ENE
Starlink BH 2.6 17:57:47 10° W 18:00:43 83° N 18:01:09 61° ENE
SKYMED 3 4.5 17:56:29 10° NNE 18:00:52 79° ESE 18:05:12 10° SSW
Starlink AZ 2.6 17:58:00 10° W 18:00:56 83° N 18:01:21 62° ENE
Starlink BG 2.6 17:58:14 10° W 18:01:10 83° N 18:01:34 62° ENE
Starlink BF 2.6 17:58:26 10° W 18:01:23 83° N 18:01:47 63° ENE
Starlink BL 2.6 17:58:39 10° W 18:01:37 83° N 18:02:02 62° ENE
Starlink AH 2.6 17:58:54 10° W 18:01:50 83° NNW 18:02:13 64° ENE
Starlink AC 2.6 17:59:08 10° W 18:02:04 83° N 18:02:26 64° ENE
Starlink X 2.6 17:59:21 10° W 18:02:17 82° N 18:02:39 65° ENE
Starlink AE 2.6 17:59:32 10° W 18:02:30 82° NNW 18:02:54 63° ENE
Cosmos 724 4.3 17:56:40 10° SSW 18:02:34 66° SE 18:06:12 24° NE
Starlink Z 2.5 17:59:48 10° W 18:02:44 82° N 18:03:05 65° ENE
Starlink AK 2.5 18:00:01 10° W 18:02:57 82° NNW 18:03:18 66° ENE
Starlink AL 2.5 18:00:15 10° W 18:03:11 82° NNW 18:03:31 66° ENE
Starlink AD 2.5 18:00:28 10° W 18:03:24 82° NNW 18:03:44 67° ENE
Starlink Y 2.5 18:00:55 10° W 18:03:51 82° NNW 18:04:10 67° ENE
Starlink AG 2.5 18:01:08 10° W 18:04:05 82° N 18:04:22 68° ENE
Starlink W 2.6 18:01:20 10° W 18:04:18 82° N 18:04:37 67° ENE
Starlink AJ 2.5 18:01:35 10° W 18:04:32 81° N 18:04:48 69° ENE
Meteor 1-21 Rocket 4.1 17:59:12 10° S 18:04:48 78° E 18:10:33 10° NNE
Cosmos 2219 3.1 17:59:15 10° SSW 18:04:51 78° ESE 18:09:13 18° NNE
Starlink AM 2.5 18:02:04 10° W 18:04:59 81° N 18:05:15 70° NE
Starlink AP 2.5 18:02:16 10° W 18:05:13 81° N 18:05:27 71° NE
Starlink AA 2.5 18:02:29 10° W 18:05:26 81° N 18:05:40 71° NE
Starlink AF 2.5 18:02:43 10° W 18:05:39 81° N 18:05:53 72° NE
Cosmos 1328 4.1 18:01:52 10° SSE 18:05:40 42° E 18:06:16 39° ENE
Starlink AB 2.5 18:02:56 10° W 18:05:52 81° N 18:06:06 72° NE
Starlink AN 2.5 18:03:09 10° W 18:06:05 81° NNW 18:06:18 72° NE
Cosmos 2082 4.2 18:02:15 10° S 18:07:21 37° ESE 18:08:58 31° ENE
Cosmos 1603 4.4 18:02:41 10° NNW 18:07:51 34° NE 18:09:08 30° ENE
Cosmos 1727 Rocket 4.0 18:02:25 10° N 18:08:33 57° ENE 18:14:36 10° SSE
SJ 16-02 4.1 18:07:15 10° WNW 18:08:53 12° NW 18:10:31 10° NNW
Cosmos 1825 Rocket 3.4 18:06:00 10° S 18:10:21 84° ESE 18:14:43 10° NNE
Cosmos 1607 4.4 18:06:42 10° WSW 18:12:45 58° NW 18:17:11 19° NE
USA 267 3.4 18:12:10 26° ENE 18:16:05 71° NNW 18:22:35 10° W
Cosmos 2297 Rocket 2.1 18:11:19 10° SSW 18:16:56 71° ESE 18:20:19 25° NE
SL-8 Rocket 3.9 18:15:41 10° S 18:21:59 83° E 18:28:18 10° NNE
Starlink T 3.0 18:19:17 10° W 18:22:00 66° WNW 18:22:00 66° WNW
Starlink N 3.1 18:20:44 10° W 18:23:25 63° WNW 18:23:25 63° WNW
SKYMED 2 4.0 18:20:43 10° N 18:25:01 63° WNW 18:29:19 10° SSW
Starlink Q 3.2 18:22:30 10° W 18:25:06 60° WNW 18:25:06 60° WNW
USA 116 3.9 18:27:57 43° S 18:27:57 43° S 18:30:09 10° SSW
Starlink P 3.3 18:24:03 10° W 18:26:36 57° WNW 18:26:36 57° WNW
Cosmos 2341 Rocket 4.3 18:20:53 10° SSW 18:27:15 71° WNW 18:33:37 10° N
Starlink U 3.4 18:25:37 10° W 18:28:06 54° WNW 18:28:06 54° WNW
Cosmos 2227 Rocket 2.1 18:23:47 10° SSW 18:29:26 79° ESE 18:32:19 30° NE
Starlink AR 4.3 18:26:59 10° W 18:28:31 31° W 18:28:31 31° W
Starlink B 3.5 18:27:12 10° W 18:29:38 52° WNW 18:29:38 52° WNW
Ariane Rocket 2.9 18:26:12 10° SSE 18:31:14 69° ENE 18:36:19 10° NNW
Cosmos 1939 Rocket 3.4 18:31:32 10° S 18:35:25 58° W 18:39:22 10° NNW
Cosmos 2221 4.0 18:32:08 10° N 18:33:54 23° N 18:33:54 23° N
SJ-11-01 4.2 18:37:22 55° ESE 18:38:09 65° ENE 18:42:51 10° N
Starlink D 4.1 18:35:31 10° W 18:37:41 41° WNW 18:37:41 41° WNW
ARGOS 3.5 18:40:05 44° NE 18:40:05 44° NE 18:44:38 10° N
Starlink S 4.2 18:36:49 10° W 18:38:53 39° WNW 18:38:53 39° WNW
Meteor 2-10 Rocket 4.3 18:36:36 10° NNW 18:41:51 54° W 18:46:51 10° S
Starlink C 4.3 18:38:47 10° W 18:40:49 37° WNW 18:40:49 37° WNW
Cosmos 1943 3.6 18:37:41 10° NNW 18:42:49 42° NE 18:42:49 42° NE
Starlink E 4.4 18:40:27 10° W 18:42:26 36° WNW 18:42:26 36° WNW
Starlink J 4.5 18:42:07 10° W 18:44:02 34° WNW 18:44:02 34° WNW
Cosmos 1703 3.3 18:41:40 10° SSW 18:45:37 79° W 18:45:38 79° WNW
YAOGAN 1 4.1 18:42:49 10° SSW 18:46:49 37° W 18:50:53 10° NNW
H-2A R/B 2.3 18:52:43 50° NNE 18:52:43 50° NNE 18:56:46 10° N
Cosmos 44 3.4 18:48:33 10° SSW 18:52:11 53° S 18:52:11 53° S
Cosmos 2251 Rocket 4.1 18:51:19 10° NNW 18:56:31 57° WSW 19:01:42 10° S
Cosmos 2218 Rocket 4.3 18:50:56 10° SSW 18:57:15 70° WNW 19:03:41 10° N
SL-08 R/B 4.4 18:51:08 10° S 18:57:27 85° E 19:03:55 10° N
ATLAS CENTAUR R/B 2.0 18:57:55 10° NW 19:01:19 51° W 19:01:19 51° W
ISS -1.2 19:00:18 10° SW 19:01:16 17° SW 19:01:16 17° SW
CZ-4 R/B 4.2 19:04:28 10° SW 19:07:22 19° W 19:10:19 10° NW
Cosmos 2082 Rocket 4.4 19:11:57 10° N 19:13:45 12° N 19:13:45 12° N
Cosmos 2123 Rocket 4.4 19:09:06 10° N 19:13:50 48° NNE 19:13:50 48° NNE
Cosmos 1842 Rocket 4.4 19:15:03 10° NNW 19:18:58 49° WNW 19:18:58 49° WNW
CZ-2C R/B 3.7 19:23:28 50° N 19:23:28 50° N 19:27:37 10° NNW
ADEOS Rocket 3.3 19:22:37 10° NNE 19:29:03 74° WNW 19:36:10 10° SSW
ATLAS 5 CENTAUR R/B 3.7 19:32:21 10° NW 19:35:25 23° NNW 19:35:25 23° NNW
SL-16 R/B 4.2 19:34:52 10° NW 19:39:28 26° WSW 19:44:02 10° SSW
NOSS 3-3 (A) 4.3 19:33:01 10° NW 19:40:14 78° NE 19:40:14 78° NE
NOSS 3-3 (C) 4.3 19:33:07 10° NW 19:40:18 77° NE 19:40:18 77° NE
Cosmos 2082 4.5 19:45:55 10° SW 19:50:54 48° WNW 19:50:54 48° WNW
Cosmos 1603 4.5 19:46:44 10° NW 19:51:03 48° WNW 19:51:03 48° WNW
USA 267 3.6 19:59:31 56° NNW 19:59:31 56° NNW 20:05:12 10° WNW
Cosmos 2297 Rocket 3.7 19:56:33 10° WSW 20:01:30 30° NW 20:02:09 29° NNW
Cosmos 2227 Rocket 3.9 20:09:17 10° W 20:14:06 28° NW 20:14:11 28° NW
H-2A R/B 4.3 20:33:20 19° WNW 20:33:20 19° WNW 20:35:38 10° NW
